Regional Weather Roundup
Issued by NWS

Home | Current Version | Previous Version | Graphics & Text | Print | Product List | Glossary On
Versions: 1 2 3 4 5 6 7 8 9 10 11 12 13 14 15 16 17 18 19 20 21 22 23 24 25 26 27 28 29 30 31 32 33 34 35 36 37 38 39 40 41 42 43 44 45 46 47 48 49 50
000
ASUS44 KMEG 102000
RWRTN
TENNESSEE HOURLY STATE WEATHER ROUNDUP
NATIONAL WEATHER SERVICE MEMPHIS TN
300 PM CDT THU JUL 10 2014

TNZ002-004-019-021-049-052-054-088>092-102100-
WEST TENNESSEE

CITY           SKY/WX    TMP DP  RH WIND       PRES   REMARKS
MEMPHIS INTL   PTSUNNY   89  61  38 NW7       30.06F
NWS MEMPHIS      N/A     87 N/A N/A MISG        N/A
JACKSON        PTSUNNY   86  62  44 E5        30.07F
DYERSBURG      PTSUNNY   84  61  45 E5        30.07F
UNION CITY     MOSUNNY   88  63  42 VRB3      30.06F
LEXINGTON      SUNNY     84  63  48 NE3       30.08F
$$

TNZ008-025-027-028-033-062-065-066-102100-
NORTH MIDDLE TENNESSEE

CITY           SKY/WX    TMP DP  RH WIND       PRES   REMARKS
NASHVILLE      CLOUDY    89  56  32 NW5       30.07F
CLARKSVILLE    CLOUDY    85  61  44 W6        30.07F
COOKEVILLE     SUNNY     88  63  42 CALM      30.09F
CROSSVILLE     MOSUNNY   81  59  47 N7        30.14S
$$

TNZ061-075-076-078-094-096-097-102100-
SOUTH MIDDLE TENNESSEE

CITY           SKY/WX    TMP DP  RH WIND       PRES   REMARKS
TULLAHOMA      SUNNY     82  63  51 N6        30.10F
WINCHESTER     MOSUNNY   84  63  48 NW5       30.08F
MCMINNVILLE    MOSUNNY   84  64  51 N8        30.10F
COLUMBIA       SUNNY     86  63  45 N5        30.07F
$$

TNZ017-018-042-046-047-102100-
NORTHEAST TENNESSEE

CITY           SKY/WX    TMP DP  RH WIND       PRES   REMARKS
TRI CITIES     PTSUNNY   86  59  39 W10       30.08F
ELIZABETHTON   PTCLDY    82  61  47 VRB3      30.08S
$$

TNZ012-013-036-069-073-074-102100-
CENTRAL EAST TENNESSEE

CITY           SKY/WX    TMP DP  RH WIND       PRES   REMARKS
KNOXVILLE      PTSUNNY   84  66  54 NW7       30.06F
OAK RIDGE      SUNNY     86  66  51 CALM      30.09F
$$

TNZ083-085-099-102100-
SOUTHEAST TENNESSEE

CITY           SKY/WX    TMP DP  RH WIND       PRES   REMARKS
CHATTANOOGA    PTSUNNY   87  66  49 N6        30.05F
$$

SKY/WX REPORTED AS FAIR MEANS FEW OR NO CLOUDS BELOW
12 THOUSAND FEET.



USA.gov is the U.S. government's official web portal to all federal, state and local government web resources and services.